Location: �A�n Sefra
(34.9681°N, 0.4346°E)
Time: 10:19:13
(UTC+00:00)

ADEOS Rocket - Pass Details

Date: 21 October 2019
Orbit: 859 x 1306 km, 98.7° (Epoch: 20 November)

Event Time Altitude Azimuth Distance (km) Brightness Sun altitude
Rises 19:44:40 0° 12° (NNE) 4,261 6.3 -31.0°
Reaches altitude 10° 19:47:27 10° 12° (NNE) 3,256 5.7 -31.6°
Enters shadow 19:54:14 74° 4° (N) 1,245 3.4 -33.0°
Exits shadow 19:57:31 45° 198° (SSW) 1,543 3.9 -33.6°
Drops below altitude 10° 20:01:50 10° 196° (SSW) 2,959 5.5 -34.5°
Sets 20:04:15 0° 196° (SSW) 3,853 6.2 -35.0°
